Location: 22
(39.7117°N, 89.5929°W)
Time: 18:26:44
(UTC-05:00)

Vanguard 3 - Pass Details

Date: 05 February 2023
Orbit: 508 x 3249 km, 33.4° (Epoch: 30 March)

Event Time Altitude Azimuth Distance (km) Brightness Sun altitude
Rises 16:57:40 0° 218° (SW) 3,428 11.6 3.6°
Reaches altitude 10° 17:00:01 10° 207° (SSW) 2,752 10.8 3.2°
Maximum altitude 17:05:59 32° 145° (SE) 2,178 9.3 2.2°
Drops below altitude 10° 17:15:35 10° 89° (E) 4,515 10.4 0.5°
Sets 17:20:39 0° 82° (E) 6,005 10.9 -0.5°
